Tracking 35274 objects as of 12-Sep-2026
HD Live streaming from Space Station
objects crossing your sky now

COSMOS 540


10-day predictions
COSMOS 540 is classified as:


NORAD ID: 6323
Int'l Code: 1972-104A
Launch date: December 25, 1972
Source: Commonwealth of Independent States (former USSR) (CIS)
Launch site: PLESETSK MISSILE AND SPACE COMPLEX (PKMTR)
Your satellite tracking list
Your tracking list is empty




NASA's NSSDC Master Catalog

Two Line Element Set (TLE):
1  6323U 72104A   26255.16026449  .00000107  00000-0  44440-4 0  9998
2  6323  74.0801 300.0406 0018841 245.5780 114.3408 14.37530239811516
Source of the keplerian elements: AFSPC